FW1757 Weather Reports


time (UTC)temp
C
wind
direction
speed
KPH
gust
KPH
rain 1hr
cm
rain 24hr
cm
rain mn
cm
humidity
%
barometer
mb
20260904115528 11 229 0.0 0.0 0.03 0.28 0.03 1 1010.9
20260904115025 11 229 0.0 0.0 0.03 0.28 0.03 1 1010.8
20260904114524 11 229 0.0 0.0 0.03 0.28 0.03 1 1010.9
20260904114024 11 229 0.0 0.0 0.03 0.28 0.03 1 1010.8
20260904113522 11 229 0.0 0.0 0.03 0.28 0.03 1 1010.8
20260904113031 11 229 0.0 0.0 0.03 0.28 0.03 1 1010.8
20260904112519 11 229 0.0 0.0 0.00 0.25 0.00 1 1010.7
20260904112018 11 229 0.0 0.0 0.00 0.25 0.00 1 1010.6
20260904111523 11 229 0.0 0.0 0.00 0.25 0.00 1 1010.6
20260904111022 11 229 0.0 0.0 0.00 0.25 0.00 1 1010.6
20260904110512 11 229 0.0 0.0 0.00 0.25 0.00 1 1010.6
20260904110011 11 230 0.0 0.0 0.00 0.25 0.00 1 1010.6
20260904105509 11 229 0.0 0.0 0.00 0.25 0.00 1 1010.4
20260904105008 11 229 0.0 0.0 0.00 0.25 0.00 1 1010.3
20260904104507 11 229 0.0 0.0 0.00 0.25 0.00 1 1010.4
20260904104006 11 229 0.0 0.0 0.00 0.25 0.00 1 1010.4
20260904103504 11 229 0.0 0.0 0.00 0.25 0.00 1 1010.3
20260904103004 11 229 0.0 0.0 0.00 0.25 0.00 1 1010.3
20260904102501 11 229 0.0 0.0 0.00 0.25 0.00 1 1010.2
20260904102100 11 229 0.0 0.0 0.00 0.25 0.00 1 1010.1
20260904101600 11 229 0.0 0.0 0.00 0.25 0.00 1 1010.2
20260904101056 11 229 0.0 0.0 0.00 0.25 0.00 1 1010.2
20260904100555 11 230 0.0 0.0 0.00 0.25 0.00 1 1010.1
20260904095555 11 230 0.0 0.0 0.00 0.25 0.00 1 1009.9
20260904095050 11 230 0.0 0.0 0.00 0.25 0.00 1 1010.0
20260904094549 11 230 0.0 0.0 0.00 0.25 0.00 1 1009.8
20260904094051 11 230 0.0 0.0 0.00 0.25 0.00 1 1009.9
20260904093548 11 230 0.0 0.0 0.00 0.25 0.00 1 1009.9
20260904093052 11 229 0.0 0.0 0.00 0.25 0.00 1 1009.9
20260904092543 11 229 0.0 0.0 0.00 0.25 0.00 1 1009.9
20260904092042 11 222 0.0 0.0 0.00 0.25 0.00 1 1009.7
20260904091542 11 238 0.0 0.0 0.00 0.25 0.00 1 1009.8
20260904091038 11 238 0.0 0.0 0.00 0.25 0.00 1 1009.8
20260904090537 11 238 0.0 0.0 0.00 0.25 0.00 1 1009.8
20260904090047 11 238 0.0 0.0 0.00 0.25 0.00 1 1009.8
20260904085534 11 238 0.0 0.0 0.00 0.25 0.00 1 1009.8
20260904085033 11 238 0.0 0.0 0.00 0.25 0.00 1 1009.9
20260904084532 11 238 0.0 0.0 0.00 0.25 0.00 1 1009.8
20260904084031 11 238 0.0 0.0 0.00 0.25 0.00 1 1009.8
20260904083528 11 238 0.0 0.0 0.00 0.25 0.00 1 1009.8
20260904083027 11 238 0.0 0.0 0.00 0.25 0.00 1 1009.7
20260904082526 11 238 0.0 0.0 0.00 0.25 0.00 1 1009.8
20260904082027 11 238 0.0 0.0 0.00 0.25 0.00 1 1009.8
20260904081523 11 238 0.0 0.0 0.00 0.25 0.00 1 1009.6
20260904081022 11 238 0.0 0.0 0.00 0.25 0.00 1 1009.7
20260904080520 11 238 0.0 0.0 0.00 0.25 0.00 1 1009.6
20260904080025 11 238 0.0 0.0 0.00 0.25 0.00 1 1009.6
20260904075516 11 238 0.0 0.0 0.00 0.25 0.00 1 1009.7
20260904075014 11 238 0.0 0.0 0.00 0.25 0.00 1 1009.6
20260904074525 11 238 0.0 0.0 0.00 0.25 0.00 1 1009.8
20260904074012 11 238 0.0 0.0 0.00 0.25 0.00 1 1009.7
20260904073515 12 238 0.0 0.0 0.00 0.25 0.00 1 1009.7
20260904073012 12 238 0.0 0.0 0.00 0.25 0.00 1 1009.6
20260904072508 12 238 0.0 0.0 0.00 0.25 0.00 1 1009.7
20260904072007 12 238 0.0 0.0 0.00 0.25 0.00 1 1009.7
20260904071505 12 238 0.0 0.0 0.00 0.25 0.00 1 1009.6
20260904071004 12 238 0.0 0.0 0.00 0.25 0.00 1 1009.7
20260904070502 12 238 0.0 0.0 0.00 0.25 0.00 1 1009.7
20260904070001 12 238 0.0 0.0 0.00 0.25 0.25 1 1009.5
20260904065501 12 236 0.0 0.0 0.00 0.25 0.25 1 1009.5
20260904065001 12 266 0.0 0.0 0.00 0.25 0.25 1 1009.4
20260904064620 12 266 0.0 0.0 0.00 0.25 0.25 1 1009.5
20260904064102 12 266 0.0 0.0 0.00 0.25 0.25 1 1009.4
20260904063557 12 266 0.0 0.0 0.00 0.25 0.25 1 1009.3
20260904063057 12 266 0.0 0.0 0.00 0.25 0.25 1 1009.3
20260904062558 12 267 0.0 0.0 0.00 0.25 0.25 1 1009.3
20260904062053 12 267 0.0 0.0 0.00 0.25 0.25 1 1009.3
20260904061553 12 267 0.0 0.0 0.00 0.25 0.25 1 1009.2
20260904061053 12 267 0.0 0.0 0.00 0.25 0.25 1 1009.4
20260904060551 12 250 0.0 0.0 0.00 0.25 0.25 1 1009.3
20260904060047 12 250 0.0 0.0 0.00 0.25 0.25 1 1009.3
20260904055546 12 250 0.0 0.0 0.00 0.25 0.25 1 1009.2
20260904055044 12 250 0.0 0.0 0.00 0.25 0.25 1 1009.4
20260904054544 12 250 0.0 0.0 0.00 0.25 0.25 1 1009.3
20260904054042 12 250 0.0 0.0 0.00 0.25 0.25 1 1009.3
20260904053540 12 250 0.0 0.0 0.00 0.25 0.25 1 1009.4
20260904053041 12 250 0.0 0.0 0.00 0.25 0.25 1 1009.2
20260904052539 12 250 0.0 0.0 0.00 0.25 0.25 3 1009.3
20260904052036 12 282 0.0 0.0 0.00 0.25 0.25 5 1009.4
20260904051536 12 282 0.0 0.0 0.00 0.25 0.25 6 1009.3
20260904051033 12 282 0.0 0.0 0.00 0.25 0.25 7 1009.4
20260904050531 12 214 0.0 0.0 0.00 0.25 0.25 7 1009.4
20260904050032 12 214 0.0 0.0 0.00 0.25 0.25 7 1009.4
20260904045528 12 214 0.0 0.0 0.00 0.25 0.25 6 1009.4
20260904045027 12 214 0.0 0.0 0.00 0.25 0.25 5 1009.5
20260904044538 12 214 0.0 0.0 0.00 0.25 0.25 5 1009.6
20260904044027 12 214 0.0 0.0 0.00 0.25 0.25 5 1009.5
20260904043525 12 214 0.0 0.0 0.00 0.25 0.25 5 1009.5
20260904043021 12 209 0.0 0.0 0.00 0.25 0.25 5 1009.5
20260904042520 12 213 0.0 0.0 0.00 0.25 0.25 6 1009.5
20260904042024 12 212 0.0 0.0 0.00 0.25 0.25 8 1009.4
20260904041531 12 211 0.0 0.0 0.00 0.25 0.25 9 1009.5
20260904041015 13 211 0.0 0.0 0.00 0.25 0.25 9 1009.5
20260904040513 13 211 0.0 0.0 0.00 0.25 0.25 10 1009.6
20260904040015 13 211 0.0 0.0 0.00 0.28 0.25 10 1009.5
20260904035511 13 214 0.0 0.0 0.00 0.28 0.25 9 1009.5
20260904035009 13 173 0.0 0.0 0.00 0.28 0.25 9 1009.6
20260904034508 13 189 0.0 0.0 0.00 0.28 0.25 9 1009.6
20260904034007 13 184 0.0 0.0 0.00 0.28 0.25 10 1009.4
20260904033507 13 184 0.0 0.0 0.00 0.28 0.25 10 1009.3
20260904033003 13 182 0.0 0.0 0.00 0.28 0.25 10 1009.3
20260904032503 13 182 0.0 0.0 0.00 0.28 0.25 10 1009.2
20260904032004 13 219 0.0 0.0 0.00 0.28 0.25 9 1009.3
20260904031600 13 219 0.0 0.0 0.00 0.28 0.25 9 1009.2
20260904031059 13 242 0.0 0.0 0.00 0.28 0.25 9 1009.2
20260904030558 14 242 0.0 0.0 0.00 0.28 0.25 9 1009.2
20260904030056 14 252 0.0 0.0 0.00 0.28 0.25 10 1009.1
20260904025555 14 252 0.0 0.0 0.00 0.43 0.25 13 1009.1
20260904025054 14 252 0.0 0.0 0.00 0.43 0.25 12 1009.0
20260904024552 14 263 0.0 0.0 0.00 0.43 0.25 12 1009.2
20260904024052 15 263 0.0 0.0 0.00 0.43 0.25 13 1009.1
20260904023549 15 263 0.0 0.0 0.00 0.43 0.25 15 1009.1
20260904023048 15 263 0.0 0.0 0.00 0.43 0.25 15 1009.0
20260904022547 15 263 0.0 0.0 0.00 0.43 0.25 17 1009.0
20260904022045 15 263 0.0 0.0 0.00 0.43 0.25 21 1008.9
20260904021544 15 263 0.0 0.0 0.00 0.43 0.25 27 1008.9
20260904021042 15 257 0.0 0.0 0.00 0.43 0.25 23 1008.9
20260904020540 15 257 0.0 0.0 0.00 0.43 0.25 22 1009.0
20260904020046 15 261 0.0 0.0 0.00 0.43 0.25 25 1009.0
20260904015537 15 272 0.0 0.0 0.00 0.46 0.25 29 1008.9
20260904015036 15 257 0.0 0.0 0.00 0.46 0.25 25 1009.0
20260904014538 15 281 0.0 0.0 0.00 0.46 0.25 21 1008.7
20260904014034 16 283 0.0 0.0 0.03 0.46 0.25 10 1008.8
20260904013532 16 219 0.0 0.0 0.05 0.46 0.25 2 1008.7
20260904013030 15 219 0.0 0.0 0.08 0.46 0.25 1 1008.7
20260904012531 15 219 0.0 0.0 0.10 0.46 0.25 1 1008.6
20260904012027 15 219 0.0 0.0 0.13 0.46 0.25 1 1008.4
20260904011528 15 219 0.0 0.0 0.15 0.46 0.25 1 1008.5
20260904011024 15 219 0.0 0.0 0.18 0.46 0.25 1 1008.6
20260904010522 15 219 0.0 0.0 0.20 0.46 0.25 1 1008.5
20260904010021 15 219 0.0 0.0 0.23 0.46 0.25 1 1008.6
20260904005520 15 219 0.0 0.0 0.23 0.48 0.25 1 1008.5
20260904005018 15 219 0.0 0.0 0.25 0.48 0.25 5 1008.5
20260904004517 15 219 0.0 0.0 0.23 0.46 0.23 6 1008.6
20260904004017 15 219 0.0 0.0 0.23 0.46 0.23 14 1008.5
20260904003513 14 219 0.0 0.0 0.18 0.41 0.18 24 1008.6
20260904003013 15 219 0.0 0.0 0.15 0.38 0.15 29 1008.5
20260904002511 15 228 0.0 0.0 0.13 0.36 0.13 35 1008.7
20260904002010 15 214 0.0 0.0 0.13 0.36 0.13 39 1008.7
20260904001508 15 214 0.0 0.0 0.10 0.33 0.10 42 1008.7
20260904001007 15 227 0.0 0.0 0.08 0.30 0.08 50 1008.7
20260904000505 15 209 0.0 0.0 0.05 0.28 0.05 54 1008.8
20260904000005 15 244 0.0 0.0 0.03 0.28 0.03 58 1008.9
20260903235502 15 231 0.0 0.0 0.03 0.28 0.03 62 1008.9
20260903235000 15 221 0.0 0.0 0.00 0.25 0.00 65 1008.7
20260903234600 15 228 0.0 0.0 0.00 0.25 0.00 66 1008.8
20260903234100 15 262 0.0 0.0 0.00 0.25 0.00 66 1008.7
20260903233600 15 261 0.0 0.0 0.00 0.25 0.00 66 1008.7
20260903233100 15 214 0.0 0.0 0.00 0.25 0.00 66 1008.7
20260903232559 15 297 0.0 0.0 0.00 0.25 0.00 66 1008.6
20260903232058 16 290 0.0 0.0 0.00 0.25 0.00 66 1008.6
20260903231610 16 309 0.0 0.0 0.00 0.25 0.00 66 1008.7
20260903231055 16 279 0.0 0.0 0.00 0.25 0.00 65 1008.6
20260903230557 16 346 0.0 0.0 0.00 0.25 0.00 65 1008.5
20260903230052 16 308 0.0 0.0 0.00 0.25 0.00 65 1008.6
20260903225551 16 273 0.0 0.0 0.00 0.28 0.00 64 1008.5
20260903225050 17 279 0.0 0.0 0.00 0.28 0.00 64 1008.5
20260903224548 17 286 0.0 0.0 0.00 0.28 0.00 65 1008.6
20260903224047 17 229 0.0 0.0 0.00 0.28 0.00 64 1008.5
20260903223544 16 268 0.0 0.0 0.00 0.28 0.00 64 1008.6
20260903223046 16 271 0.0 0.0 0.00 0.28 0.00 64 1008.5
20260903222541 17 291 0.0 0.0 0.00 0.28 0.00 63 1008.7
20260903222040 17 334 0.0 0.0 0.00 0.28 0.00 63 1008.7
20260903221540 17 256 0.0 0.0 0.00 0.28 0.00 62 1008.7
20260903221037 18 300 0.0 0.0 0.00 0.28 0.00 60 1008.6
20260903220537 19 258 0.0 0.0 0.00 0.28 0.00 57 1008.5
20260903220056 20 300 0.0 0.0 0.00 0.28 0.00 54 1008.6
20260903215535 20 265 0.0 0.0 0.00 0.36 0.00 49 1008.4
20260903215032 21 315 0.0 0.0 0.00 0.36 0.00 46 1008.5
20260903214529 21 275 0.0 0.0 0.00 0.36 0.00 45 1008.4
20260903214028 21 273 0.0 0.0 0.00 0.36 0.00 48 1008.3
20260903213527 20 268 0.0 0.0 0.00 0.36 0.00 46 1008.4
20260903213028 20 321 0.0 0.0 0.00 0.36 0.00 46 1008.3
20260903212524 20 319 0.0 0.0 0.00 0.36 0.00 47 1008.4
20260903212026 20 355 0.0 0.0 0.00 0.36 0.00 48 1008.4
20260903211522 20 290 0.0 0.0 0.00 0.36 0.00 48 1008.4
20260903211020 20 324 0.0 0.0 0.00 0.36 0.00 48 1008.4
20260903210521 20 13 0.0 0.0 0.00 0.36 0.00 48 1008.5
20260903210017 20 11 0.0 0.0 0.00 0.43 0.00 51 1008.7
20260903205517 20 61 0.0 0.0 0.00 0.43 0.00 53 1008.8
20260903205014 20 355 0.0 0.0 0.00 0.43 0.00 53 1008.8
20260903204512 19 342 0.0 0.0 0.00 0.43 0.00 57 1008.7
20260903204011 18 310 0.0 0.0 0.00 0.43 0.00 55 1008.8
20260903203512 18 347 0.0 0.0 0.00 0.43 0.00 55 1008.8
20260903203015 18 355 0.0 0.0 0.00 0.43 0.00 58 1008.8
20260903202507 18 355 0.0 0.0 0.00 0.43 0.00 56 1008.9
20260903202006 18 355 0.0 0.0 0.00 0.43 0.00 59 1008.9
20260903201503 18 355 0.0 0.0 0.00 0.43 0.00 60 1009.0
20260903201002 18 355 0.0 0.0 0.00 0.43 0.00 61 1009.0
20260903200501 17 294 0.0 0.0 0.00 0.43 0.00 61 1009.0
20260903200108 17 294 0.0 0.0 0.00 0.43 0.00 61 1009.2
20260903195558 17 292 0.0 0.0 0.00 0.53 0.00 62 1009.2
20260903195059 17 292 0.0 0.0 0.00 0.53 0.00 65 1009.4
20260903194556 17 292 0.0 0.0 0.00 0.53 0.00 67 1009.6
20260903194053 16 345 0.0 0.0 0.00 0.53 0.00 66 1009.5
20260903193552 16 319 0.0 0.0 0.00 0.53 0.00 64 1009.6
20260903193055 16 319 0.0 0.0 0.00 0.53 0.00 62 1009.7
20260903192550 16 314 0.0 0.0 0.00 0.53 0.00 61 1009.7
20260903192048 16 312 0.0 0.0 0.00 0.53 0.00 53 1009.8
20260903191558 16 316 0.0 0.0 0.00 0.53 0.00 57 1009.9
20260903191045 15 331 0.0 0.0 0.00 0.53 0.00 61 1009.9
20260903190544 15 331 0.0 0.0 0.00 0.53 0.00 61 1009.9
20260903190041 16 331 0.0 0.0 0.00 0.53 0.00 55 1010.0
20260903185539 15 331 0.0 0.0 0.00 0.53 0.00 56 1010.1
20260903185039 15 331 0.0 0.0 0.00 0.53 0.00 54 1010.1
20260903184540 15 331 0.0 0.0 0.00 0.53 0.00 44 1010.1
20260903184036 15 330 0.0 0.0 0.00 0.53 0.00 41 1010.1
20260903183538 15 330 0.0 0.0 0.00 0.53 0.00 22 1010.0
20260903183049 15 331 0.0 0.0 0.00 0.53 0.00 29 1010.1
20260903182531 14 247 0.0 0.0 0.00 0.53 0.00 13 1010.2
20260903182031 14 246 0.0 0.0 0.00 0.53 0.00 1 1010.0
20260903181529 13 224 0.0 0.0 0.00 0.53 0.00 1 1010.2
20260903181030 12 224 0.0 0.0 0.00 0.53 0.00 1 1010.1
20260903180526 12 224 0.0 0.0 0.00 0.53 0.00 1 1010.1
20260903180034 12 224 0.0 0.0 0.00 0.53 0.00 1 1010.2
20260903175522 12 224 0.0 0.0 0.00 0.53 0.00 1 1010.2
20260903175021 12 224 0.0 0.0 0.00 0.53 0.00 1 1010.2
20260903174524 11 224 0.0 0.0 0.00 0.53 0.00 1 1010.2
20260903174019 11 224 0.0 0.0 0.00 0.53 0.00 1 1010.3
20260903173516 11 224 0.0 0.0 0.00 0.53 0.00 1 1010.3
20260903173015 11 224 0.0 0.0 0.00 0.53 0.00 1 1010.3
20260903172515 11 224 0.0 0.0 0.00 0.53 0.00 1 1010.3
20260903172012 11 224 0.0 0.0 0.00 0.53 0.00 1 1010.3
20260903171518 11 221 0.0 0.0 0.00 0.53 0.00 1 1010.3
20260903171009 11 221 0.0 0.0 0.00 0.53 0.00 1 1010.3
20260903170513 11 221 0.0 0.0 0.00 0.53 0.00 1 1010.3
20260903170013 11 221 0.0 0.0 0.00 0.53 0.00 1 1010.4
20260903165504 11 221 0.0 0.0 0.00 0.53 0.00 1 1010.3
20260903165003 11 221 0.0 0.0 0.00 0.53 0.00 1 1010.3
20260903164502 11 221 0.0 0.0 0.00 0.53 0.00 1 1010.3
20260903164004 11 221 0.0 0.0 0.00 0.53 0.00 1 1010.3
20260903163600 11 221 0.0 0.0 0.00 0.53 0.00 1 1010.3
20260903163058 11 221 0.0 0.0 0.00 0.53 0.00 1 1010.3
20260903162556 11 220 0.0 0.0 0.00 0.53 0.00 1 1010.3
20260903162055 11 200 0.0 0.0 0.00 0.53 0.00 1 1010.3
20260903161612 11 360 0.0 0.0 0.00 0.53 0.00 1 1010.3
20260903161055 10 360 0.0 0.0 0.00 0.53 0.00 1 1010.1
20260903160551 10 360 0.0 0.0 0.00 0.53 0.00 1 1010.2
20260903160050 10 360 0.0 0.0 0.00 0.53 0.00 1 1010.3
20260903155548 10 360 0.0 0.0 0.00 0.53 0.00 1 1010.3
20260903155046 10 360 0.0 0.0 0.00 0.53 0.00 1 1010.3
20260903154545 10 360 0.0 0.0 0.00 0.53 0.00 1 1010.2
20260903154044 10 360 0.0 0.0 0.00 0.53 0.00 1 1010.3
20260903153542 10 360 0.0 0.0 0.00 0.53 0.00 1 1010.4
20260903153040 10 360 0.0 0.0 0.00 0.53 0.00 1 1010.5
20260903152539 10 360 0.0 0.0 0.00 0.53 0.00 1 1010.5
20260903152037 10 360 0.0 0.0 0.00 0.53 0.00 1 1010.3
20260903151541 10 360 0.0 0.0 0.00 0.53 0.00 1 1010.4
20260903151035 10 360 0.0 0.0 0.00 0.53 0.00 1 1010.3
20260903150534 10 360 0.0 0.0 0.00 0.53 0.00 1 1010.2
20260903150031 10 360 0.0 0.0 0.00 0.53 0.00 1 1010.3
20260903145530 10 360 0.0 0.0 0.00 0.53 0.00 1 1010.3
20260903145029 10 360 0.0 0.0 0.00 0.53 0.00 1 1010.2
20260903144528 10 360 0.0 0.0 0.00 0.53 0.00 1 1010.1
20260903144027 10 360 0.0 0.0 0.00 0.53 0.00 1 1010.1
20260903143524 10 360 0.0 0.0 0.00 0.53 0.00 1 1010.1
20260903143034 10 360 0.0 0.0 0.00 0.53 0.00 1 1010.3
20260903142522 10 360 0.0 0.0 0.00 0.53 0.00 1 1010.2
20260903142024 10 360 0.0 0.0 0.00 0.53 0.00 1 1010.2
20260903141519 10 360 0.0 0.0 0.00 0.53 0.00 1 1010.1
20260903141017 10 360 0.0 0.0 0.00 0.53 0.00 1 1010.1
20260903140516 10 360 0.0 0.0 0.00 0.53 0.00 1 1010.0
20260903140017 10 360 0.0 0.0 0.00 0.53 0.00 1 1010.0
20260903135512 10 360 0.0 0.0 0.00 0.53 0.00 1 1009.9
20260903135011 9 360 0.0 0.0 0.00 0.53 0.00 1 1009.9
20260903134510 9 360 0.0 0.0 0.00 0.53 0.00 1 1010.0
20260903134008 9 360 0.0 0.0 0.00 0.53 0.00 1 1009.8
20260903133507 9 360 0.0 0.0 0.00 0.53 0.00 1 1009.8
20260903133006 9 360 0.0 0.0 0.00 0.53 0.00 1 1009.8
20260903132504 9 360 0.0 0.0 0.00 0.53 0.00 1 1009.7
20260903132003 10 360 0.0 0.0 0.00 0.53 0.00 1 1009.7
20260903131503 10 360 0.0 0.0 0.00 0.53 0.00 1 1009.7
20260903131102 9 360 0.0 0.0 0.00 0.53 0.00 1 1009.7
20260903130559 9 360 0.0 0.0 0.00 0.53 0.00 1 1009.5
20260903125556 9 360 0.0 0.0 0.00 0.53 0.00 1 1009.6
20260903125054 9 360 0.0 0.0 0.00 0.53 0.00 1 1009.6
20260903124600 9 360 0.0 0.0 0.00 0.53 0.00 1 1009.6
20260903124050 9 360 0.0 0.0 0.00 0.53 0.00 1 1009.8
20260903123549 9 360 0.0 0.0 0.00 0.53 0.00 1 1009.7
20260903123048 9 360 0.0 0.0 0.00 0.53 0.00 1 1009.6
20260903122547 9 360 0.0 0.0 0.00 0.53 0.00 1 1009.8
20260903122046 9 360 0.0 0.0 0.00 0.53 0.00 1 1009.7
20260903121549 10 360 0.0 0.0 0.00 0.53 0.00 1 1009.6
20260903121042 10 360 0.0 0.0 0.00 0.53 0.00 1 1009.6
20260903120543 10 360 0.0 0.0 0.00 0.53 0.00 1 1009.7
20260903120039 10 360 0.0 0.0 0.00 0.53 0.00 1 1009.7